Volver al catálogo

STARLINK-30843

ActivoComunicacionesVLEO
NORAD 58241·PAYLOAD·🇺🇸 United States

Lanzado Nov 8, 2023 desde Cape Canaveral Space Force Station

Loading…

Próximos Pases (próximas 24 horas)

TLE

ActualizadoSource: CelesTrak SupGP

Época: Sep 14, 2026, 21:13 UTC

1 58241C 23171M   26257.88451389 -.00011406  00000+0 -41316-3 0  2570
2 58241  43.0004 296.8879 0001524 265.3005 243.2804 15.27581484    14

Sigue STARLINK-30843 en tiempo real con AllMySat

Download on the App Store